When you browse on this site, cookies collect data to enhance your experience and personalize the content and advertising you see.
Visit our Privacy Policy to learn more. By continuing to use the site, you agree to this use of cookies and data.
  • In Spain
  • List of Countries
  • For 7 days
  • Water Temperature
  • Satellite Maps
  • Weather Map
  • Weather Widgets
  • user-avatar
    Login

    Hourly Weather Maksyma Hor'koho

    Today, 22 March, Friday

    Time Temperature Precipitation Wind Pressure Humidity
    00:00 +6°C° 0 mm 4 mps 770 mmHg 59%
    01:00 +6°C° 0 mm 4 mps 769 mmHg 61%
    02:00 +5°C° 0 mm 4 mps 769 mmHg 66%
    03:00 +4°C° 0 mm 3 mps 769 mmHg 70%
    04:00 +4°C° 0 mm 3 mps 769 mmHg 73%
    05:00 +4°C° 0 mm 3 mps 769 mmHg 77%
    06:00 +5°C° 0 mm 2 mps 769 mmHg 73%
    07:00 +6°C° 0 mm 2 mps 769 mmHg 69%
    08:00 +8°C° 0 mm 1 mps 769 mmHg 65%
    09:00 +8°C° 0 mm 2 mps 769 mmHg 59%
    10:00 +10°C° 0 mm 3 mps 768 mmHg 54%
    11:00 +11°C° 0 mm 3 mps 768 mmHg 48%
    12:00 +12°C° 0 mm 4 mps 768 mmHg 48%
    13:00 +12°C° 0 mm 5 mps 767 mmHg 47%
    14:00 +13°C° 0 mm 6 mps 767 mmHg 47%
    15:00 +11°C° 0 mm 7 mps 766 mmHg 50%
    16:00 +11°C° 0 mm 7 mps 765 mmHg 54%
    17:00 +10°C° 0 mm 7 mps 765 mmHg 57%
    18:00 +10°C° 0 mm 7 mps 765 mmHg 61%
    19:00 +10°C° 0 mm 7 mps 765 mmHg 65%
    20:00 +9°C° 0 mm 7 mps 764 mmHg 69%
    21:00 +9°C° 0.1 mm 7 mps 764 mmHg 67%
    22:00 +9°C° 0.1 mm 7 mps 764 mmHg 64%
    23:00 +9°C° 0.1 mm 7 mps 764 mmHg 62%

    Tomorrow, 23 March, Saturday

    Time Temperature Precipitation Wind Pressure Humidity
    00:00 +8°C° 0 mm 7 mps 764 mmHg 60%
    01:00 +5°C° 0 mm 6 mps 764 mmHg 59%
    02:00 +4°C° 0 mm 6 mps 764 mmHg 57%
    03:00 +3°C° 0 mm 6 mps 764 mmHg 57%
    04:00 +3°C° 0 mm 6 mps 764 mmHg 58%
    05:00 +2°C° 0 mm 5 mps 764 mmHg 58%
    06:00 +2°C° 0 mm 6 mps 764 mmHg 54%
    07:00 +3°C° 0 mm 7 mps 764 mmHg 50%
    08:00 +4°C° 0 mm 8 mps 764 mmHg 46%
    09:00 +4°C° 0 mm 8 mps 764 mmHg 44%
    10:00 +5°C° 0 mm 8 mps 764 mmHg 42%
    11:00 +6°C° 0 mm 8 mps 764 mmHg 40%
    12:00 +6°C° 0.1 mm 8 mps 764 mmHg 42%
    13:00 +6°C° 0.1 mm 8 mps 764 mmHg 43%
    14:00 +6°C° 0.1 mm 8 mps 764 mmHg 44%
    15:00 +5°C° 0 mm 8 mps 764 mmHg 46%
    16:00 +5°C° 0 mm 7 mps 764 mmHg 48%
    17:00 +5°C° 0 mm 7 mps 764 mmHg 50%
    18:00 +4°C° 0 mm 7 mps 764 mmHg 53%
    19:00 +3°C° 0 mm 6 mps 765 mmHg 57%
    20:00 +2°C° 0 mm 6 mps 765 mmHg 60%
    21:00 +2°C° 0 mm 6 mps 765 mmHg 62%
    22:00 +2°C° 0 mm 6 mps 765 mmHg 64%
    23:00 +1°C° 0 mm 6 mps 765 mmHg 66%

    Day after tomorrow, 24 March, Sunday

    Time Temperature Precipitation Wind Pressure Humidity
    00:00 +1°C° 0 mm 5 mps 765 mmHg 70%
    01:00 +1°C° 0 mm 5 mps 765 mmHg 74%
    02:00 0°C° 0 mm 5 mps 765 mmHg 77%
    03:00 0°C° 0 mm 5 mps 765 mmHg 81%
    04:00 0°C° 0 mm 4 mps 765 mmHg 84%
    05:00 -1°C° 0 mm 4 mps 765 mmHg 87%
    06:00 0°C° 0 mm 4 mps 765 mmHg 82%
    07:00 +1°C° 0 mm 4 mps 765 mmHg 77%
    08:00 +3°C° 0 mm 3 mps 766 mmHg 73%
    09:00 +4°C° 0 mm 3 mps 765 mmHg 65%
    10:00 +7°C° 0 mm 3 mps 765 mmHg 57%
    11:00 +8°C° 0 mm 3 mps 765 mmHg 49%
    12:00 +9°C° 0 mm 3 mps 765 mmHg 46%
    13:00 +9°C° 0 mm 3 mps 765 mmHg 43%
    14:00 +10°C° 0 mm 3 mps 764 mmHg 40%
    15:00 +10°C° 0 mm 4 mps 764 mmHg 42%
    16:00 +10°C° 0 mm 4 mps 764 mmHg 45%
    17:00 +9°C° 0 mm 5 mps 764 mmHg 47%
    18:00 +8°C° 0 mm 4 mps 764 mmHg 53%
    19:00 +6°C° 0 mm 4 mps 764 mmHg 59%
    20:00 +5°C° 0 mm 4 mps 764 mmHg 65%
    21:00 +5°C° 0 mm 4 mps 763 mmHg 66%
    22:00 +5°C° 0 mm 5 mps 763 mmHg 68%
    23:00 +5°C° 0 mm 5 mps 763 mmHg 69%

    25 March, Monday

    Time Temperature Precipitation Wind Pressure Humidity
    00:00 +5°C° 0 mm 5 mps 763 mmHg 69%
    01:00 +5°C° 0 mm 6 mps 762 mmHg 69%
    02:00 +5°C° 0 mm 6 mps 762 mmHg 70%
    03:00 +4°C° 0 mm 6 mps 762 mmHg 73%
    04:00 +4°C° 0 mm 6 mps 761 mmHg 76%
    05:00 +4°C° 0 mm 6 mps 761 mmHg 79%
    06:00 +5°C° 0 mm 6 mps 761 mmHg 76%
    07:00 +5°C° 0 mm 6 mps 761 mmHg 74%
    08:00 +7°C° 0 mm 6 mps 761 mmHg 71%
    09:00 +7°C° 0.3 mm 6 mps 761 mmHg 75%
    10:00 +7°C° 0.3 mm 5 mps 761 mmHg 79%
    11:00 +6°C° 0.3 mm 4 mps 761 mmHg 83%
    12:00 +6°C° 0.5 mm 4 mps 760 mmHg 83%
    13:00 +7°C° 0.5 mm 3 mps 760 mmHg 82%
    14:00 +7°C° 0.5 mm 3 mps 760 mmHg 82%
    15:00 +8°C° 0.1 mm 2 mps 760 mmHg 79%
    16:00 +9°C° 0.1 mm 1 mps 759 mmHg 76%
    17:00 +8°C° 0.1 mm 0 mps 759 mmHg 74%
    18:00 +8°C° 0 mm 1 mps 759 mmHg 78%
    19:00 +7°C° 0 mm 1 mps 760 mmHg 81%
    20:00 +6°C° 0 mm 1 mps 760 mmHg 85%
    21:00 +6°C° 0 mm 1 mps 760 mmHg 86%
    22:00 +6°C° 0 mm 1 mps 760 mmHg 87%
    23:00 +6°C° 0 mm 1 mps 760 mmHg 87%

    26 March, Tuesday

    Time Temperature Precipitation Wind Pressure Humidity
    00:00 +6°C° 0 mm 1 mps 760 mmHg 87%
    01:00 +5°C° 0 mm 1 mps 760 mmHg 87%
    02:00 +5°C° 0 mm 1 mps 760 mmHg 86%
    03:00 +5°C° 0 mm 1 mps 760 mmHg 85%
    04:00 +5°C° 0 mm 1 mps 760 mmHg 83%
    05:00 +3°C° 0 mm 0 mps 760 mmHg 81%
    06:00 +5°C° 0 mm 0 mps 761 mmHg 75%
    07:00 +6°C° 0 mm 0 mps 761 mmHg 69%
    08:00 +7°C° 0 mm 0 mps 761 mmHg 63%
    09:00 +9°C° 0 mm 0 mps 762 mmHg 56%
    10:00 +11°C° 0 mm 1 mps 762 mmHg 50%
    11:00 +12°C° 0 mm 1 mps 762 mmHg 43%
    12:00 +13°C° 0 mm 1 mps 762 mmHg 40%
    13:00 +13°C° 0 mm 1 mps 762 mmHg 38%
    14:00 +13°C° 0 mm 1 mps 762 mmHg 35%
    15:00 +13°C° 0 mm 2 mps 762 mmHg 36%
    16:00 +13°C° 0 mm 2 mps 763 mmHg 37%
    17:00 +12°C° 0 mm 3 mps 763 mmHg 38%
    18:00 +11°C° 0 mm 3 mps 764 mmHg 43%
    19:00 +9°C° 0 mm 3 mps 764 mmHg 47%
    20:00 +8°C° 0 mm 3 mps 765 mmHg 52%
    21:00 +8°C° 0 mm 3 mps 765 mmHg 55%
    22:00 +7°C° 0 mm 2 mps 765 mmHg 57%
    23:00 +7°C° 0 mm 2 mps 766 mmHg 60%

    27 March, Wednesday

    Time Temperature Precipitation Wind Pressure Humidity
    00:00 +7°C° 0 mm 2 mps 766 mmHg 60%
    01:00 +6°C° 0 mm 2 mps 766 mmHg 60%
    02:00 +5°C° 0 mm 3 mps 767 mmHg 59%
    03:00 +5°C° 0 mm 3 mps 767 mmHg 58%
    04:00 +4°C° 0 mm 3 mps 767 mmHg 57%
    05:00 +4°C° 0 mm 4 mps 768 mmHg 57%
    06:00 +5°C° 0 mm 4 mps 768 mmHg 55%
    07:00 +6°C° 0 mm 4 mps 768 mmHg 54%
    08:00 +7°C° 0 mm 5 mps 769 mmHg 53%
    09:00 +8°C° 0 mm 4 mps 769 mmHg 48%
    10:00 +10°C° 0 mm 4 mps 769 mmHg 42%
    11:00 +12°C° 0 mm 4 mps 769 mmHg 37%
    12:00 +12°C° 0 mm 4 mps 769 mmHg 34%
    13:00 +13°C° 0 mm 4 mps 769 mmHg 32%
    14:00 +13°C° 0 mm 3 mps 769 mmHg 29%
    15:00 +13°C° 0 mm 3 mps 769 mmHg 30%
    16:00 +12°C° 0 mm 3 mps 768 mmHg 32%
    17:00 +12°C° 0 mm 3 mps 768 mmHg 33%
    18:00 +11°C° 0 mm 3 mps 769 mmHg 36%
    19:00 +9°C° 0 mm 3 mps 769 mmHg 39%
    20:00 +8°C° 0 mm 3 mps 769 mmHg 43%
    21:00 +7°C° 0 mm 3 mps 769 mmHg 42%
    22:00 +7°C° 0 mm 3 mps 769 mmHg 42%
    23:00 +5°C° 0 mm 3 mps 769 mmHg 42%
    Show more